Showing default

COSMOS 1566, 15005

Orbit data source: Space-Track

COSMOS 1566, 15005 is a payload satellite owned by GUKOS (CIS) in LEO that was launched on Mon, 28 May 1984 UTC via a KOSMOS 11K65M launch vehicle from the Plesetsk Missile And Space Complex (PKMTR). Payload-class satellites include a variety of spacecraft equipped with specific instruments for various scientific and technological missions. These include communications satellites like Starlink; space stations such as the ISS; scientific satellites like the Hubble; Earth observation satellites from companies like Planet Labs, Umbra, and HawkEye 360; GPS; miniature CubeSats for education and research; and military/defense satellites.

Loading next visibility...
Identifier
15005, 1984-052H
Orbit
LEO
Country
Flag of CISCIS
Related business
Manufacturer
NPO PM
Mission
Spacecraft
Bus & Motor
STRELA-1 11F625, Unknown motor
Mass
60 kg wet, 60 kg dry
Launch date (UTC)
1984-05-28 (42 years ago)
Launch vehicle
KOSMOS 11K65M
Launch site
Plesetsk Missile And Space Complex (PKMTR)
Object type
Payload
Rocket body
Debris
Shape & HBR
Unknown
Radar Cross Section
Medium (>0.1 m² and <1 m²)

Expand to show TLE details & history
Last TLE update: 10 hours ago

TLE from 10 hours ago
0 COSMOS 1566
1 15005U 84052H   26036.94610917 -.00000020  00000-0 -18655-4 0  9997
2 15005  74.0100 208.7253 0051744 329.2587 144.7034 12.57381905913613
Epoch: 2026-02-05T22:42Z
TLE epoch observation values (Epoch: 2026-02-05T22:42:23.832Z)
Latitude
61.27283°
Longitude
-119.31446°
Altitude
1,476.931 km
Speed
7.115 km/s
True Right ascension
23h 49m 30s
True Declination
61° 08' 27"
Sunlit
Object was in daylight at epoch
Visualization orbit readout
Latitude
Unknown
Longitude
Unknown
Altitude
Unknown
Speed
Unknown
Apparent Right ascension
Unknown
Apparent Declination
Unknown
Sunlit
N/A
Visualization observer readout
Local Sidereal Time
11:06:18
Azimuth
Unknown
Elevation
Unknown
Doppler factor
Unknown
Orbital elements
Apogee altitude
1,472.008 km
Perigee altitude
1,391.187 km
Semi-major axis
7,809.735 km
Eccentricity
0.00517
Inclination
74.01°
RAAN
208.7253°
Arg. of periapsis
329.2587°
True anomaly
145.04421°
Mean anomaly
144.7034°
Eccentric anomaly
144.87398°
Mean motion
3.14477 °/min
Orbital period
114.48 mins
BSTAR
-0.000018655
Loading maneuver chart data...
Computing Atmospheric mass density...
Loading historical data...
Loading historical data...
Loading historical data...
Loading historical data...
Loading historical data...
Loading historical data...
Loading historical data...

Documentation

Showing up to 5 results
|